Time,TemperatureF,DewpointF,PressureIn,WindDirection,WindDirectionDegrees,WindSpeedMPH,WindSpeedGustMPH,Humidity,HourlyPrecipIn,Conditions,Clouds,dailyrainin,SolarRadiationWatts/m^2,SoftwareType,DateUTC
2013-02-02 00:02:00,51.3,27.2,30.17,ENE,61,3.0,4.0,39,0.00,,,0.00,0,LWC V2.00 B727,2013-02-02 07:02:00,
2013-02-02 00:07:00,51.3,27.2,30.17,ENE,61,1.0,3.0,39,0.00,,,0.00,0,LWC V2.00 B727,2013-02-02 07:07:00,
2013-02-02 00:12:00,51.4,27.3,30.17,ENE,61,2.0,3.0,39,0.00,,,0.00,0,LWC V2.00 B727,2013-02-02 07:12:00,
2013-02-02 00:17:00,51.1,27.0,30.17,ENE,61,1.0,2.0,39,0.00,,,0.00,0,LWC V2.00 B727,2013-02-02 07:17:00,
2013-02-02 00:22:00,51.2,27.1,30.17,ENE,61,1.0,3.0,39,0.00,,,0.00,0,LWC V2.00 B727,2013-02-02 07:22:00,
2013-02-02 00:27:00,51.2,27.1,30.17,ENE,61,0.0,2.0,39,0.00,,,0.00,0,LWC V2.00 B727,2013-02-02 07:27:00,
2013-02-02 00:32:00,50.8,27.4,30.18,ENE,61,0.0,0.0,40,0.00,,,0.00,0,LWC V2.00 B727,2013-02-02 07:32:00,
2013-02-02 00:37:00,50.3,26.9,30.18,ENE,61,0.0,0.0,40,0.00,,,0.00,0,LWC V2.00 B727,2013-02-02 07:37:00,
2013-02-02 00:42:00,50.2,26.8,30.18,ENE,61,0.0,0.0,40,0.00,,,0.00,0,LWC V2.00 B727,2013-02-02 07:42:00,
2013-02-02 00:47:00,51.3,26.6,30.18,ENE,61,0.0,0.0,38,0.00,,,0.00,0,LWC V2.00 B727,2013-02-02 07:47:00,
2013-02-02 00:52:00,51.5,26.7,30.18,ENE,61,0.0,1.0,38,0.00,,,0.00,0,LWC V2.00 B727,2013-02-02 07:52:00,
2013-02-02 00:57:00,50.6,27.2,30.18,ENE,61,0.0,1.0,40,0.00,,,0.00,0,LWC V2.00 B727,2013-02-02 07:57:00,
2013-02-02 01:05:00,50.0,27.2,30.18,ENE,61,0.0,0.0,41,0.00,,,0.00,0,LWC V2.00 B727,2013-02-02 08:05:00,
2013-02-02 01:06:00,49.4,27.3,30.18,ENE,61,0.0,0.0,42,0.00,,,0.00,0,LWC V2.00 B727,2013-02-02 08:06:00,
2013-02-02 01:11:00,49.9,26.5,30.18,ENE,61,0.0,0.0,40,0.00,,,0.00,0,LWC V2.00 B727,2013-02-02 08:11:00,
2013-02-02 01:16:00,50.6,25.9,30.19,ENE,61,0.0,1.0,38,0.00,,,0.00,0,LWC V2.00 B727,2013-02-02 08:16:00,
2013-02-02 01:21:00,51.3,25.9,30.18,ENE,61,0.0,0.0,37,0.00,,,0.00,0,LWC V2.00 B727,2013-02-02 08:21:00,
2013-02-02 01:26:00,51.7,25.6,30.18,ENE,61,0.0,0.0,36,0.00,,,0.00,0,LWC V2.00 B727,2013-02-02 08:26:00,
2013-02-02 01:31:00,51.8,25.7,30.19,ENE,61,0.0,1.0,36,0.00,,,0.00,0,LWC V2.00 B727,2013-02-02 08:31:00,
2013-02-02 01:36:00,50.8,26.7,30.18,ENE,61,0.0,1.0,39,0.00,,,0.00,0,LWC V2.00 B727,2013-02-02 08:36:00,
2013-02-02 01:41:00,50.0,26.6,30.18,ENE,61,3.0,3.0,40,0.00,,,0.00,0,LWC V2.00 B727,2013-02-02 08:41:00,
2013-02-02 01:46:00,49.4,26.7,30.18,ENE,61,2.0,2.0,41,0.00,,,0.00,0,LWC V2.00 B727,2013-02-02 08:46:00,
2013-02-02 01:51:00,49.3,27.2,30.18,ENE,61,2.0,3.0,42,0.00,,,0.00,0,LWC V2.00 B727,2013-02-02 08:51:00,
2013-02-02 01:56:00,49.3,27.2,30.18,ENE,61,0.0,2.0,42,0.00,,,0.00,0,LWC V2.00 B727,2013-02-02 08:56:00,
2013-02-02 02:01:00,49.0,27.5,30.18,ENE,61,0.0,0.0,43,0.00,,,0.00,0,LWC V2.00 B727,2013-02-02 09:01:00,
2013-02-02 02:06:00,49.6,28.0,30.18,ENE,61,0.0,0.0,43,0.00,,,0.00,0,LWC V2.00 B727,2013-02-02 09:06:00,
2013-02-02 02:11:00,50.8,28.0,30.18,ENE,61,0.0,0.0,41,0.00,,,0.00,0,LWC V2.00 B727,2013-02-02 09:11:00,
2013-02-02 02:16:00,50.9,27.4,30.17,ENE,61,3.0,4.0,40,0.00,,,0.00,0,LWC V2.00 B727,2013-02-02 09:16:00,
2013-02-02 02:21:00,50.5,27.7,30.17,ENE,61,2.0,3.0,41,0.00,,,0.00,0,LWC V2.00 B727,2013-02-02 09:21:00,
2013-02-02 02:26:00,50.9,27.4,30.18,ENE,61,0.0,2.0,40,0.00,,,0.00,0,LWC V2.00 B727,2013-02-02 09:26:00,
2013-02-02 02:31:00,51.1,27.6,30.17,ENE,61,0.0,0.0,40,0.00,,,0.00,0,LWC V2.00 B727,2013-02-02 09:31:00,
2013-02-02 02:36:00,51.7,26.9,30.17,ENE,61,0.0,0.0,38,0.00,,,0.00,0,LWC V2.00 B727,2013-02-02 09:36:00,
2013-02-02 02:41:00,51.9,27.1,30.17,ENE,61,1.0,1.0,38,0.00,,,0.00,0,LWC V2.00 B727,2013-02-02 09:41:00,
2013-02-02 02:46:00,50.7,26.7,30.17,ENE,61,2.0,3.0,39,0.00,,,0.00,0,LWC V2.00 B727,2013-02-02 09:46:00,
2013-02-02 02:51:00,50.3,26.9,30.17,ENE,61,2.0,3.0,40,0.00,,,0.00,0,LWC V2.00 B727,2013-02-02 09:51:00,
2013-02-02 02:56:00,50.2,26.8,30.17,ENE,61,1.0,3.0,40,0.00,,,0.00,0,LWC V2.00 B727,2013-02-02 09:56:00,
2013-02-02 03:01:00,50.1,27.3,30.17,ENE,61,3.0,4.0,41,0.00,,,0.00,0,LWC V2.00 B727,2013-02-02 10:01:00,
2013-02-02 03:06:00,50.0,27.2,30.18,ENE,61,2.0,3.0,41,0.00,,,0.00,0,LWC V2.00 B727,2013-02-02 10:06:00,
2013-02-02 03:11:00,50.2,26.8,30.17,ENE,61,1.0,1.0,40,0.00,,,0.00,0,LWC V2.00 B727,2013-02-02 10:11:00,
2013-02-02 03:16:00,50.0,26.6,30.17,ENE,61,3.0,4.0,40,0.00,,,0.00,0,LWC V2.00 B727,2013-02-02 10:16:00,
2013-02-02 03:21:00,49.9,26.5,30.17,ENE,61,0.0,2.0,40,0.00,,,0.00,0,LWC V2.00 B727,2013-02-02 10:21:00,
2013-02-02 03:26:00,49.3,26.6,30.17,ENE,61,1.0,2.0,41,0.00,,,0.00,0,LWC V2.00 B727,2013-02-02 10:26:00,
2013-02-02 03:31:00,48.7,26.6,30.17,ENE,61,0.0,1.0,42,0.00,,,0.00,0,LWC V2.00 B727,2013-02-02 10:31:00,
2013-02-02 03:36:00,49.1,26.4,30.17,ENE,61,1.0,2.0,41,0.00,,,0.00,0,LWC V2.00 B727,2013-02-02 10:36:00,
2013-02-02 03:41:00,49.3,26.6,30.17,ENE,61,1.0,1.0,41,0.00,,,0.00,0,LWC V2.00 B727,2013-02-02 10:41:00,
2013-02-02 03:46:00,49.0,26.3,30.17,ENE,61,0.0,0.0,41,0.00,,,0.00,0,LWC V2.00 B727,2013-02-02 10:46:00,
2013-02-02 03:51:00,49.0,25.7,30.17,ENE,61,0.0,0.0,40,0.00,,,0.00,0,LWC V2.00 B727,2013-02-02 10:51:00,
2013-02-02 03:56:00,49.2,25.9,30.17,ENE,61,0.0,0.0,40,0.00,,,0.00,0,LWC V2.00 B727,2013-02-02 10:56:00,
2013-02-02 04:01:00,49.1,25.8,30.17,ENE,61,0.0,0.0,40,0.00,,,0.00,0,LWC V2.00 B727,2013-02-02 11:01:00,
2013-02-02 04:06:00,48.5,25.9,30.17,ENE,61,0.0,0.0,41,0.00,,,0.00,0,LWC V2.00 B727,2013-02-02 11:06:00,
2013-02-02 04:11:00,48.2,26.2,30.16,ENE,61,0.0,0.0,42,0.00,,,0.00,0,LWC V2.00 B727,2013-02-02 11:11:00,
2013-02-02 04:16:00,48.0,26.0,30.16,ENE,61,0.0,0.0,42,0.00,,,0.00,0,LWC V2.00 B727,2013-02-02 11:16:00,
2013-02-02 04:21:00,47.7,25.7,30.16,ENE,61,0.0,0.0,42,0.00,,,0.00,0,LWC V2.00 B727,2013-02-02 11:21:00,
2013-02-02 04:26:00,46.5,26.3,30.17,ENE,61,0.0,0.0,45,0.00,,,0.00,0,LWC V2.00 B727,2013-02-02 11:26:00,
2013-02-02 04:31:00,45.0,26.5,30.17,ENE,61,0.0,0.0,48,0.00,,,0.00,0,LWC V2.00 B727,2013-02-02 11:31:00,
2013-02-02 04:36:00,44.3,26.8,30.17,ENE,61,0.0,0.0,50,0.00,,,0.00,0,LWC V2.00 B727,2013-02-02 11:36:00,
2013-02-02 04:41:00,44.4,26.5,30.17,ENE,61,0.0,0.0,49,0.00,,,0.00,0,LWC V2.00 B727,2013-02-02 11:41:00,
2013-02-02 04:46:00,46.0,25.9,30.17,ENE,61,0.0,0.0,45,0.00,,,0.00,0,LWC V2.00 B727,2013-02-02 11:46:00,
2013-02-02 04:51:00,46.2,26.0,30.17,ENE,61,0.0,1.0,45,0.00,,,0.00,0,LWC V2.00 B727,2013-02-02 11:51:00,
2013-02-02 04:56:00,46.2,26.6,30.16,ENE,61,1.0,3.0,46,0.00,,,0.00,0,LWC V2.00 B727,2013-02-02 11:56:00,
2013-02-02 05:01:00,46.2,26.6,30.16,ENE,61,2.0,4.0,46,0.00,,,0.00,0,LWC V2.00 B727,2013-02-02 12:01:00,
2013-02-02 05:06:00,46.0,26.4,30.16,ENE,61,3.0,4.0,46,0.00,,,0.00,0,LWC V2.00 B727,2013-02-02 12:06:00,
2013-02-02 05:11:00,45.8,26.7,30.16,ENE,61,0.0,2.0,47,0.00,,,0.00,0,LWC V2.00 B727,2013-02-02 12:11:00,
2013-02-02 05:16:00,45.9,26.8,30.16,ENE,61,2.0,2.0,47,0.00,,,0.00,0,LWC V2.00 B727,2013-02-02 12:16:00,
2013-02-02 05:21:00,46.4,26.8,30.15,ENE,61,2.0,3.0,46,0.00,,,0.00,0,LWC V2.00 B727,2013-02-02 12:21:00,
2013-02-02 05:26:00,46.6,26.4,30.16,ENE,61,3.0,3.0,45,0.00,,,0.00,0,LWC V2.00 B727,2013-02-02 12:26:00,
2013-02-02 05:31:00,47.4,26.0,30.16,ENE,61,1.0,2.0,43,0.00,,,0.00,0,LWC V2.00 B727,2013-02-02 12:31:00,
2013-02-02 05:36:00,48.1,25.5,30.16,ENE,61,0.0,0.0,41,0.00,,,0.00,0,LWC V2.00 B727,2013-02-02 12:36:00,
2013-02-02 05:41:00,48.8,25.6,30.16,ENE,61,0.0,0.0,40,0.00,,,0.00,0,LWC V2.00 B727,2013-02-02 12:41:00,
2013-02-02 05:46:00,49.3,24.8,30.16,ENE,61,0.0,1.0,38,0.00,,,0.00,0,LWC V2.00 B727,2013-02-02 12:46:00,
2013-02-02 05:51:00,48.3,25.1,30.16,ENE,61,0.0,0.0,40,0.00,,,0.00,0,LWC V2.00 B727,2013-02-02 12:51:00,
2013-02-02 05:56:00,48.7,24.9,30.17,ENE,61,0.0,1.0,39,0.00,,,0.00,0,LWC V2.00 B727,2013-02-02 12:56:00,
2013-02-02 06:01:00,49.6,25.0,30.17,ENE,61,0.0,0.0,38,0.00,,,0.00,0,LWC V2.00 B727,2013-02-02 13:01:00,
2013-02-02 06:06:00,49.5,25.0,30.17,ENE,61,0.0,0.0,38,0.00,,,0.00,0,LWC V2.00 B727,2013-02-02 13:06:00,
2013-02-02 06:11:00,48.6,24.8,30.17,ENE,61,0.0,0.0,39,0.00,,,0.00,0,LWC V2.00 B727,2013-02-02 13:11:00,
2013-02-02 06:16:00,48.8,25.6,30.17,ENE,61,0.0,1.0,40,0.00,,,0.00,0,LWC V2.00 B727,2013-02-02 13:16:00,
2013-02-02 06:21:00,49.2,25.9,30.17,ENE,61,0.0,1.0,40,0.00,,,0.00,0,LWC V2.00 B727,2013-02-02 13:21:00,
2013-02-02 06:26:00,49.2,25.9,30.17,ENE,61,0.0,1.0,40,0.00,,,0.00,0,LWC V2.00 B727,2013-02-02 13:26:00,
2013-02-02 06:31:00,48.7,26.1,30.17,ENE,61,1.0,1.0,41,0.00,,,0.00,0,LWC V2.00 B727,2013-02-02 13:31:00,
2013-02-02 06:36:00,47.9,25.3,30.17,ENE,61,0.0,1.0,41,0.00,,,0.00,0,LWC V2.00 B727,2013-02-02 13:36:00,
2013-02-02 06:41:00,47.5,25.0,30.17,ENE,61,1.0,2.0,41,0.00,,,0.00,0,LWC V2.00 B727,2013-02-02 13:41:00,
2013-02-02 06:46:00,46.9,24.4,30.18,ENE,61,0.0,2.0,41,0.00,,,0.00,0,LWC V2.00 B727,2013-02-02 13:46:00,
2013-02-02 06:51:00,46.4,24.6,30.18,ENE,61,1.0,2.0,42,0.00,,,0.00,0,LWC V2.00 B727,2013-02-02 13:51:00,
2013-02-02 06:56:00,46.3,24.5,30.18,ENE,61,1.0,2.0,42,0.00,,,0.00,0,LWC V2.00 B727,2013-02-02 13:56:00,
2013-02-02 07:01:00,46.4,24.0,30.19,ENE,61,2.0,4.0,41,0.00,,,0.00,0,LWC V2.00 B727,2013-02-02 14:01:00,
2013-02-02 07:06:00,46.5,24.7,30.19,ENE,62,3.0,5.0,42,0.00,,,0.00,0,LWC V2.00 B727,2013-02-02 14:06:00,
2013-02-02 07:11:00,46.4,24.6,30.18,ENE,64,4.0,5.0,42,0.00,,,0.00,0,LWC V2.00 B727,2013-02-02 14:11:00,
2013-02-02 07:17:00,46.3,24.5,30.19,ENE,65,2.0,4.0,42,0.00,,,0.00,5,LWC V2.00 B727,2013-02-02 14:17:00,
2013-02-02 07:22:00,46.4,24.6,30.19,ENE,65,3.0,3.0,42,0.00,,,0.00,7,LWC V2.00 B727,2013-02-02 14:22:00,
2013-02-02 07:27:00,46.8,24.9,30.19,ENE,65,1.0,2.0,42,0.00,,,0.00,12,LWC V2.00 B727,2013-02-02 14:27:00,
2013-02-02 07:32:00,47.4,24.9,30.18,ENE,65,0.0,0.0,41,0.00,,,0.00,16,LWC V2.00 B727,2013-02-02 14:32:00,
2013-02-02 07:37:00,48.1,24.3,30.19,ENE,65,0.0,0.0,39,0.00,,,0.00,23,LWC V2.00 B727,2013-02-02 14:37:00,
2013-02-02 07:42:00,48.7,24.2,30.18,ENE,65,2.0,2.0,38,0.00,,,0.00,28,LWC V2.00 B727,2013-02-02 14:42:00,
2013-02-02 07:47:00,48.8,24.3,30.19,ENE,65,0.0,1.0,38,0.00,,,0.00,33,LWC V2.00 B727,2013-02-02 14:47:00,
2013-02-02 07:52:00,48.8,23.7,30.19,ENE,64,1.0,3.0,37,0.00,,,0.00,37,LWC V2.00 B727,2013-02-02 14:52:00,
2013-02-02 07:57:00,48.8,23.7,30.20,ENE,64,0.0,0.0,37,0.00,,,0.00,42,LWC V2.00 B727,2013-02-02 14:57:00,
2013-02-02 08:02:00,49.0,23.9,30.20,ENE,64,2.0,2.0,37,0.00,,,0.00,47,LWC V2.00 B727,2013-02-02 15:02:00,
2013-02-02 08:07:00,49.1,24.0,30.20,ENE,64,1.0,3.0,37,0.00,,,0.00,47,LWC V2.00 B727,2013-02-02 15:07:00,
2013-02-02 08:12:00,49.6,23.8,30.20,North,9,0.0,1.0,36,0.00,,,0.00,54,LWC V2.00 B727,2013-02-02 15:12:00,
2013-02-02 08:17:00,49.2,24.7,30.20,North,9,0.0,0.0,38,0.00,,,0.00,156,LWC V2.00 B727,2013-02-02 15:17:00,
2013-02-02 08:22:00,49.4,26.1,30.20,North,9,0.0,0.0,40,0.00,,,0.00,181,LWC V2.00 B727,2013-02-02 15:22:00,
2013-02-02 08:27:00,47.9,26.5,30.20,North,9,0.0,0.0,43,0.00,,,0.00,181,LWC V2.00 B727,2013-02-02 15:27:00,
2013-02-02 08:32:00,49.4,26.1,30.20,North,9,0.0,0.0,40,0.00,,,0.00,202,LWC V2.00 B727,2013-02-02 15:32:00,
2013-02-02 08:37:00,52.0,27.8,30.19,North,9,0.0,0.0,39,0.00,,,0.00,195,LWC V2.00 B727,2013-02-02 15:37:00,
2013-02-02 08:42:00,51.2,28.9,30.19,North,9,0.0,0.0,42,0.00,,,0.00,209,LWC V2.00 B727,2013-02-02 15:42:00,
2013-02-02 08:47:00,52.4,30.6,30.19,North,9,0.0,0.0,43,0.00,,,0.00,244,LWC V2.00 B727,2013-02-02 15:47:00,
2013-02-02 08:52:00,50.6,28.4,30.19,North,9,0.0,1.0,42,0.00,,,0.00,265,LWC V2.00 B727,2013-02-02 15:52:00,
2013-02-02 08:57:00,49.3,27.2,30.19,North,9,0.0,0.0,42,0.00,,,0.00,272,LWC V2.00 B727,2013-02-02 15:57:00,
2013-02-02 09:02:00,50.7,28.5,30.19,North,9,0.0,0.0,42,0.00,,,0.00,299,LWC V2.00 B727,2013-02-02 16:02:00,
2013-02-02 09:07:00,51.0,28.1,30.20,North,9,0.0,0.0,41,0.00,,,0.00,329,LWC V2.00 B727,2013-02-02 16:07:00,
2013-02-02 09:12:00,51.4,27.3,30.19,North,9,0.0,0.0,39,0.00,,,0.00,334,LWC V2.00 B727,2013-02-02 16:12:00,
2013-02-02 09:17:00,52.2,28.6,30.19,North,9,0.0,0.0,40,0.00,,,0.00,336,LWC V2.00 B727,2013-02-02 16:17:00,
2013-02-02 09:22:00,52.7,29.1,30.19,North,9,0.0,0.0,40,0.00,,,0.00,341,LWC V2.00 B727,2013-02-02 16:22:00,
2013-02-02 09:27:00,53.2,29.5,30.19,North,9,0.0,1.0,40,0.00,,,0.00,348,LWC V2.00 B727,2013-02-02 16:27:00,
2013-02-02 09:32:00,53.6,29.3,30.19,North,9,0.0,0.0,39,0.00,,,0.00,350,LWC V2.00 B727,2013-02-02 16:32:00,
2013-02-02 09:37:00,54.1,28.4,30.19,North,9,0.0,0.0,37,0.00,,,0.00,343,LWC V2.00 B727,2013-02-02 16:37:00,
2013-02-02 09:42:00,55.5,29.0,30.19,North,9,0.0,0.0,36,0.00,,,0.00,403,LWC V2.00 B727,2013-02-02 16:42:00,
2013-02-02 09:47:00,55.3,26.7,30.20,North,9,0.0,0.0,33,0.00,,,0.00,392,LWC V2.00 B727,2013-02-02 16:47:00,
2013-02-02 09:52:00,55.3,26.7,30.20,North,9,0.0,0.0,33,0.00,,,0.00,390,LWC V2.00 B727,2013-02-02 16:52:00,
2013-02-02 09:57:00,55.9,27.9,30.20,North,9,0.0,2.0,34,0.00,,,0.00,464,LWC V2.00 B727,2013-02-02 16:57:00,
2013-02-02 10:02:00,56.6,28.6,30.20,North,9,1.0,2.0,34,0.00,,,0.00,482,LWC V2.00 B727,2013-02-02 17:02:00,
2013-02-02 10:07:00,57.2,28.4,30.20,North,9,0.0,3.0,33,0.00,,,0.00,482,LWC V2.00 B727,2013-02-02 17:07:00,
2013-02-02 10:12:00,57.8,26.6,30.20,North,5,0.0,0.0,30,0.00,,,0.00,487,LWC V2.00 B727,2013-02-02 17:12:00,
2013-02-02 10:17:00,58.7,28.9,30.20,North,5,2.0,3.0,32,0.00,,,0.00,534,LWC V2.00 B727,2013-02-02 17:17:00,
2013-02-02 10:22:00,59.4,30.3,30.20,SSW,211,2.0,2.0,33,0.00,,,0.00,557,LWC V2.00 B727,2013-02-02 17:22:00,
2013-02-02 10:27:00,60.0,29.3,30.20,SSW,204,4.0,4.0,31,0.00,,,0.00,543,LWC V2.00 B727,2013-02-02 17:27:00,
2013-02-02 10:32:00,60.3,29.5,30.20,SSW,204,1.0,3.0,31,0.00,,,0.00,564,LWC V2.00 B727,2013-02-02 17:32:00,
2013-02-02 10:37:00,60.7,30.7,30.20,SSW,203,2.0,2.0,32,0.00,,,0.00,563,LWC V2.00 B727,2013-02-02 17:37:00,
2013-02-02 10:42:00,61.1,30.2,30.20,SSW,202,0.0,5.0,31,0.00,,,0.00,580,LWC V2.00 B727,2013-02-02 17:42:00,
2013-02-02 10:47:00,61.1,29.4,30.20,SSW,205,0.0,2.0,30,0.00,,,0.00,564,LWC V2.00 B727,2013-02-02 17:47:00,
2013-02-02 10:52:00,61.7,30.0,30.20,SSW,211,1.0,3.0,30,0.00,,,0.00,582,LWC V2.00 B727,2013-02-02 17:52:00,
2013-02-02 10:57:00,62.1,31.1,30.19,SSW,211,0.0,1.0,31,0.00,,,0.00,580,LWC V2.00 B727,2013-02-02 17:57:00,
2013-02-02 11:02:00,62.5,30.6,30.19,SSW,203,1.0,4.0,30,0.00,,,0.00,571,LWC V2.00 B727,2013-02-02 18:02:00,
2013-02-02 11:07:00,62.5,28.1,30.19,SSW,205,0.0,0.0,27,0.00,,,0.00,555,LWC V2.00 B727,2013-02-02 18:07:00,
2013-02-02 11:12:00,63.6,29.9,30.19,SSW,203,0.0,3.0,28,0.00,,,0.00,536,LWC V2.00 B727,2013-02-02 18:12:00,
2013-02-02 11:17:00,63.9,31.0,30.19,SSW,203,1.0,4.0,29,0.00,,,0.00,608,LWC V2.00 B727,2013-02-02 18:17:00,
2013-02-02 11:22:00,64.0,30.2,30.18,SW,217,2.0,5.0,28,0.00,,,0.00,621,LWC V2.00 B727,2013-02-02 18:22:00,
2013-02-02 11:27:00,64.5,29.8,30.18,SSW,196,2.0,4.0,27,0.00,,,0.00,636,LWC V2.00 B727,2013-02-02 18:27:00,
2013-02-02 11:32:00,65.0,29.3,30.18,SSW,205,3.0,5.0,26,0.00,,,0.00,635,LWC V2.00 B727,2013-02-02 18:32:00,
2013-02-02 11:37:00,65.1,29.4,30.18,SW,214,4.0,7.0,26,0.00,,,0.00,650,LWC V2.00 B727,2013-02-02 18:37:00,
2013-02-02 11:42:00,65.0,26.3,30.18,SSW,209,0.0,3.0,23,0.00,,,0.00,666,LWC V2.00 B727,2013-02-02 18:42:00,
2013-02-02 11:47:00,65.6,25.7,30.18,SW,219,6.0,7.0,22,0.00,,,0.00,647,LWC V2.00 B727,2013-02-02 18:47:00,
2013-02-02 11:52:00,65.4,29.6,30.17,SW,220,3.0,5.0,26,0.00,,,0.00,638,LWC V2.00 B727,2013-02-02 18:52:00,
2013-02-02 11:57:00,65.8,29.0,30.17,SSE,165,2.0,3.0,25,0.00,,,0.00,638,LWC V2.00 B727,2013-02-02 18:57:00,
2013-02-02 12:02:00,66.5,31.5,30.17,SSE,166,3.0,3.0,27,0.00,,,0.00,675,LWC V2.00 B727,2013-02-02 19:02:00,
2013-02-02 12:07:00,66.5,32.4,30.16,SSW,194,0.0,3.0,28,0.00,,,0.00,682,LWC V2.00 B727,2013-02-02 19:07:00,
2013-02-02 12:12:00,66.9,31.8,30.16,SW,220,1.0,5.0,27,0.00,,,0.00,703,LWC V2.00 B727,2013-02-02 19:12:00,
2013-02-02 12:17:00,66.9,30.9,30.16,SW,225,3.0,3.0,26,0.00,,,0.00,682,LWC V2.00 B727,2013-02-02 19:17:00,
2013-02-02 12:22:00,67.0,31.9,30.16,WSW,237,2.0,4.0,27,0.00,,,0.00,626,LWC V2.00 B727,2013-02-02 19:22:00,
2013-02-02 12:27:00,67.3,31.2,30.15,SW,236,0.0,2.0,26,0.00,,,0.00,657,LWC V2.00 B727,2013-02-02 19:27:00,
2013-02-02 12:32:00,67.0,30.0,30.15,SW,236,0.0,2.0,25,0.00,,,0.00,671,LWC V2.00 B727,2013-02-02 19:32:00,
2013-02-02 12:37:00,67.4,31.3,30.14,SW,236,0.0,1.0,26,0.00,,,0.00,671,LWC V2.00 B727,2013-02-02 19:37:00,
2013-02-02 12:42:00,67.7,29.6,30.14,SW,236,0.0,3.0,24,0.00,,,0.00,629,LWC V2.00 B727,2013-02-02 19:42:00,
2013-02-02 12:47:00,67.7,28.6,30.14,SW,232,0.0,1.0,23,0.00,,,0.00,664,LWC V2.00 B727,2013-02-02 19:47:00,
2013-02-02 12:52:00,68.8,30.5,30.13,West,277,3.0,4.0,24,0.00,,,0.00,691,LWC V2.00 B727,2013-02-02 19:52:00,
2013-02-02 12:57:00,68.6,28.2,30.13,West,273,2.0,4.0,22,0.00,,,0.00,740,LWC V2.00 B727,2013-02-02 19:57:00,
2013-02-02 13:02:00,68.6,29.3,30.12,West,261,0.0,3.0,23,0.00,,,0.00,715,LWC V2.00 B727,2013-02-02 20:02:00,
2013-02-02 13:07:00,69.0,29.7,30.12,WSW,255,1.0,5.0,23,0.00,,,0.00,749,LWC V2.00 B727,2013-02-02 20:07:00,
2013-02-02 13:12:00,68.7,27.2,30.12,WSW,250,0.0,3.0,21,0.00,,,0.00,740,LWC V2.00 B727,2013-02-02 20:12:00,
2013-02-02 13:17:00,69.5,31.1,30.12,WSW,251,3.0,3.0,24,0.00,,,0.00,745,LWC V2.00 B727,2013-02-02 20:17:00,
2013-02-02 13:22:00,70.5,29.8,30.11,WSW,251,1.0,4.0,22,0.00,,,0.00,729,LWC V2.00 B727,2013-02-02 20:22:00,
2013-02-02 13:27:00,69.8,29.2,30.11,SW,236,1.0,4.0,22,0.00,,,0.00,710,LWC V2.00 B727,2013-02-02 20:27:00,
2013-02-02 13:32:00,69.7,29.2,30.11,SW,236,2.0,3.0,22,0.00,,,0.00,698,LWC V2.00 B727,2013-02-02 20:32:00,
2013-02-02 13:37:00,69.6,29.1,30.11,SW,234,1.0,2.0,22,0.00,,,0.00,687,LWC V2.00 B727,2013-02-02 20:37:00,
2013-02-02 13:42:00,70.6,31.0,30.10,SW,232,0.0,2.0,23,0.00,,,0.00,664,LWC V2.00 B727,2013-02-02 20:42:00,
2013-02-02 13:47:00,71.3,29.3,30.10,SW,232,1.0,5.0,21,0.00,,,0.00,659,LWC V2.00 B727,2013-02-02 20:47:00,
2013-02-02 13:52:00,70.9,27.8,30.10,SW,216,1.0,7.0,20,0.00,,,0.00,649,LWC V2.00 B727,2013-02-02 20:52:00,
2013-02-02 13:57:00,70.8,23.8,30.10,SW,217,0.0,3.0,17,0.00,,,0.00,647,LWC V2.00 B727,2013-02-02 20:57:00,
2013-02-02 14:02:00,71.9,28.6,30.10,SW,217,0.0,2.0,20,0.00,,,0.00,670,LWC V2.00 B727,2013-02-02 21:02:00,
2013-02-02 14:07:00,71.5,29.5,30.09,SW,217,3.0,4.0,21,0.00,,,0.00,657,LWC V2.00 B727,2013-02-02 21:07:00,
2013-02-02 14:12:00,71.4,29.4,30.09,SW,219,0.0,5.0,21,0.00,,,0.00,677,LWC V2.00 B727,2013-02-02 21:12:00,
2013-02-02 14:17:00,71.4,29.4,30.09,SSW,202,3.0,4.0,21,0.00,,,0.00,650,LWC V2.00 B727,2013-02-02 21:17:00,
2013-02-02 14:22:00,71.5,29.5,30.09,SSW,202,2.0,3.0,21,0.00,,,0.00,619,LWC V2.00 B727,2013-02-02 21:22:00,
2013-02-02 14:27:00,71.8,27.3,30.09,SSW,203,4.0,7.0,19,0.00,,,0.00,606,LWC V2.00 B727,2013-02-02 21:27:00,
2013-02-02 14:32:00,71.7,28.5,30.09,SSW,203,0.0,1.0,20,0.00,,,0.00,561,LWC V2.00 B727,2013-02-02 21:32:00,
2013-02-02 14:37:00,72.2,28.9,30.09,SSW,205,4.0,5.0,20,0.00,,,0.00,563,LWC V2.00 B727,2013-02-02 21:37:00,
2013-02-02 14:42:00,72.1,26.3,30.09,SW,224,3.0,5.0,18,0.00,,,0.00,557,LWC V2.00 B727,2013-02-02 21:42:00,
2013-02-02 14:47:00,71.6,25.9,30.08,SW,224,0.0,2.0,18,0.00,,,0.00,494,LWC V2.00 B727,2013-02-02 21:47:00,
2013-02-02 14:52:00,72.3,29.0,30.08,SW,224,0.0,1.0,20,0.00,,,0.00,520,LWC V2.00 B727,2013-02-02 21:52:00,
2013-02-02 14:57:00,72.7,28.1,30.08,SW,224,1.0,3.0,19,0.00,,,0.00,476,LWC V2.00 B727,2013-02-02 21:57:00,
2013-02-02 15:02:00,72.2,27.6,30.08,SW,221,2.0,5.0,19,0.00,,,0.00,427,LWC V2.00 B727,2013-02-02 22:02:00,
2013-02-02 15:07:00,72.3,29.0,30.08,SSW,194,2.0,2.0,20,0.00,,,0.00,348,LWC V2.00 B727,2013-02-02 22:07:00,
2013-02-02 15:12:00,71.7,27.2,30.08,SSW,194,1.0,2.0,19,0.00,,,0.00,401,LWC V2.00 B727,2013-02-02 22:12:00,
2013-02-02 15:17:00,72.4,29.1,30.08,SSW,194,3.0,3.0,20,0.00,,,0.00,464,LWC V2.00 B727,2013-02-02 22:17:00,
2013-02-02 15:22:00,72.1,27.6,30.08,SSW,210,1.0,3.0,19,0.00,,,0.00,485,LWC V2.00 B727,2013-02-02 22:22:00,
2013-02-02 15:27:00,72.5,26.6,30.07,SW,216,4.0,6.0,18,0.00,,,0.00,490,LWC V2.00 B727,2013-02-02 22:27:00,
2013-02-02 15:32:00,72.7,28.1,30.07,SSW,209,0.0,3.0,19,0.00,,,0.00,457,LWC V2.00 B727,2013-02-02 22:32:00,
2013-02-02 15:37:00,72.6,26.7,30.07,SSW,213,4.0,4.0,18,0.00,,,0.00,411,LWC V2.00 B727,2013-02-02 22:37:00,
2013-02-02 15:42:00,72.4,27.8,30.07,SSW,213,4.0,6.0,19,0.00,,,0.00,422,LWC V2.00 B727,2013-02-02 22:42:00,
2013-02-02 15:47:00,72.0,27.5,30.07,SSW,213,0.0,0.0,19,0.00,,,0.00,387,LWC V2.00 B727,2013-02-02 22:47:00,
2013-02-02 15:52:00,72.1,26.3,30.07,SSW,213,1.0,3.0,18,0.00,,,0.00,348,LWC V2.00 B727,2013-02-02 22:52:00,
2013-02-02 15:57:00,71.6,27.2,30.07,SSW,213,1.0,1.0,19,0.00,,,0.00,234,LWC V2.00 B727,2013-02-02 22:57:00,
2013-02-02 16:02:00,71.8,28.6,30.07,SSW,213,0.0,3.0,20,0.00,,,0.00,271,LWC V2.00 B727,2013-02-02 23:02:00,
2013-02-02 16:07:00,71.5,28.3,30.07,SSW,213,0.0,1.0,20,0.00,,,0.00,341,LWC V2.00 B727,2013-02-02 23:07:00,
2013-02-02 16:12:00,72.4,27.8,30.07,SSW,213,1.0,2.0,19,0.00,,,0.00,299,LWC V2.00 B727,2013-02-02 23:12:00,
2013-02-02 16:17:00,72.3,27.7,30.07,SSW,213,0.0,1.0,19,0.00,,,0.00,297,LWC V2.00 B727,2013-02-02 23:17:00,
2013-02-02 16:22:00,72.0,26.2,30.07,SSW,213,0.0,4.0,18,0.00,,,0.00,202,LWC V2.00 B727,2013-02-02 23:22:00,
2013-02-02 16:27:00,72.0,28.7,30.07,SSW,213,0.0,4.0,20,0.00,,,0.00,267,LWC V2.00 B727,2013-02-02 23:27:00,
2013-02-02 16:32:00,72.3,27.7,30.07,SSW,213,0.0,4.0,19,0.00,,,0.00,265,LWC V2.00 B727,2013-02-02 23:32:00,
2013-02-02 16:37:00,71.8,28.6,30.07,SSW,213,0.0,1.0,20,0.00,,,0.00,236,LWC V2.00 B727,2013-02-02 23:37:00,
2013-02-02 16:42:00,71.7,27.2,30.07,SSW,213,0.0,0.0,19,0.00,,,0.00,174,LWC V2.00 B727,2013-02-02 23:42:00,
2013-02-02 16:47:00,71.6,27.2,30.07,SSW,213,0.0,0.0,19,0.00,,,0.00,155,LWC V2.00 B727,2013-02-02 23:47:00,
2013-02-02 16:52:00,71.6,28.4,30.07,SSW,213,0.0,1.0,20,0.00,,,0.00,104,LWC V2.00 B727,2013-02-02 23:52:00,
2013-02-02 16:57:00,71.2,26.8,30.07,SSW,213,0.0,0.0,19,0.00,,,0.00,109,LWC V2.00 B727,2013-02-02 23:57:00,
2013-02-02 17:02:00,71.2,28.1,30.07,SSW,213,0.0,1.0,20,0.00,,,0.00,114,LWC V2.00 B727,2013-02-03 00:02:00,
2013-02-02 17:07:00,71.2,29.3,30.07,SSW,213,0.0,1.0,21,0.00,,,0.00,118,LWC V2.00 B727,2013-02-03 00:07:00,
2013-02-02 17:12:00,71.2,29.3,30.07,SSW,213,0.0,1.0,21,0.00,,,0.00,84,LWC V2.00 B727,2013-02-03 00:12:00,
2013-02-02 17:17:00,70.9,27.8,30.06,SSW,213,0.0,0.0,20,0.00,,,0.00,84,LWC V2.00 B727,2013-02-03 00:17:00,
2013-02-02 17:22:00,70.6,28.8,30.06,SSW,213,0.0,0.0,21,0.00,,,0.00,65,LWC V2.00 B727,2013-02-03 00:22:00,
2013-02-02 17:27:00,70.3,29.7,30.06,SSW,213,0.0,1.0,22,0.00,,,0.00,53,LWC V2.00 B727,2013-02-03 00:27:00,
2013-02-02 17:32:00,69.8,28.1,30.06,SSW,213,0.0,1.0,21,0.00,,,0.00,12,LWC V2.00 B727,2013-02-03 00:32:00,
2013-02-02 17:37:00,69.3,28.8,30.06,SSW,213,0.0,0.0,22,0.00,,,0.00,47,LWC V2.00 B727,2013-02-03 00:37:00,
2013-02-02 17:42:00,68.8,28.4,30.06,SSW,213,0.0,1.0,22,0.00,,,0.00,12,LWC V2.00 B727,2013-02-03 00:42:00,
2013-02-02 17:47:00,68.0,28.8,30.06,SSW,213,2.0,2.0,23,0.00,,,0.00,16,LWC V2.00 B727,2013-02-03 00:47:00,
2013-02-02 17:52:00,67.3,29.3,30.06,SSW,213,1.0,3.0,24,0.00,,,0.00,11,LWC V2.00 B727,2013-02-03 00:52:00,
2013-02-02 17:57:00,66.6,28.7,30.06,North,5,1.0,4.0,24,0.00,,,0.00,7,LWC V2.00 B727,2013-02-03 00:57:00,
2013-02-02 18:02:00,65.7,28.9,30.06,North,0,3.0,3.0,25,0.00,,,0.00,0,LWC V2.00 B727,2013-02-03 01:02:00,
2013-02-02 18:07:00,65.2,28.5,30.06,North,5,3.0,6.0,25,0.00,,,0.00,0,LWC V2.00 B727,2013-02-03 01:07:00,
2013-02-02 18:12:00,65.0,29.3,30.06,North,355,0.0,5.0,26,0.00,,,0.00,0,LWC V2.00 B727,2013-02-03 01:12:00,
2013-02-02 18:17:00,64.5,28.9,30.07,NNW,348,4.0,4.0,26,0.00,,,0.00,0,LWC V2.00 B727,2013-02-03 01:17:00,
2013-02-02 18:22:00,63.8,29.2,30.07,North,350,3.0,3.0,27,0.00,,,0.00,0,LWC V2.00 B727,2013-02-03 01:22:00,
2013-02-02 18:27:00,63.3,29.6,30.08,NNE,26,5.0,6.0,28,0.00,,,0.00,0,LWC V2.00 B727,2013-02-03 01:27:00,
2013-02-02 18:32:00,63.2,29.6,30.08,North,351,7.0,7.0,28,0.00,,,0.00,0,LWC V2.00 B727,2013-02-03 01:32:00,
2013-02-02 18:37:00,63.0,30.2,30.08,North,5,2.0,6.0,29,0.00,,,0.00,0,LWC V2.00 B727,2013-02-03 01:37:00,
2013-02-02 18:42:00,62.6,29.9,30.08,NNE,12,0.0,4.0,29,0.00,,,0.00,0,LWC V2.00 B727,2013-02-03 01:42:00,
2013-02-02 18:47:00,62.1,30.3,30.08,NNE,19,2.0,4.0,30,0.00,,,0.00,0,LWC V2.00 B727,2013-02-03 01:47:00,
2013-02-02 18:52:00,61.4,30.5,30.08,NNE,14,3.0,4.0,31,0.00,,,0.00,0,LWC V2.00 B727,2013-02-03 01:52:00,
2013-02-02 18:57:00,61.1,30.2,30.08,NNE,13,3.0,5.0,31,0.00,,,0.00,0,LWC V2.00 B727,2013-02-03 01:57:00,
2013-02-02 19:02:00,60.5,30.5,30.08,NNE,13,3.0,4.0,32,0.00,,,0.00,0,LWC V2.00 B727,2013-02-03 02:02:00,
2013-02-02 19:07:00,60.2,30.2,30.08,NNE,13,0.0,3.0,32,0.00,,,0.00,0,LWC V2.00 B727,2013-02-03 02:07:00,
2013-02-02 19:12:00,59.5,30.4,30.08,NNE,13,0.0,1.0,33,0.00,,,0.00,0,LWC V2.00 B727,2013-02-03 02:12:00,
2013-02-02 19:17:00,59.0,29.9,30.08,NNE,13,0.0,2.0,33,0.00,,,0.00,0,LWC V2.00 B727,2013-02-03 02:17:00,
2013-02-02 19:22:00,58.9,30.6,30.08,NNE,13,0.0,1.0,34,0.00,,,0.00,0,LWC V2.00 B727,2013-02-03 02:22:00,
2013-02-02 19:27:00,58.9,30.6,30.08,NNE,13,0.0,0.0,34,0.00,,,0.00,0,LWC V2.00 B727,2013-02-03 02:27:00,
2013-02-02 19:32:00,59.0,30.7,30.08,NNE,13,1.0,2.0,34,0.00,,,0.00,0,LWC V2.00 B727,2013-02-03 02:32:00,
2013-02-02 19:37:00,59.0,30.7,30.08,NNE,13,2.0,3.0,34,0.00,,,0.00,0,LWC V2.00 B727,2013-02-03 02:37:00,
2013-02-02 19:42:00,59.1,30.0,30.08,NNE,13,0.0,2.0,33,0.00,,,0.00,0,LWC V2.00 B727,2013-02-03 02:42:00,
2013-02-02 19:47:00,59.3,30.2,30.08,NNE,13,2.0,3.0,33,0.00,,,0.00,0,LWC V2.00 B727,2013-02-03 02:47:00,
2013-02-02 19:52:00,59.5,30.4,30.08,NNE,13,0.0,1.0,33,0.00,,,0.00,0,LWC V2.00 B727,2013-02-03 02:52:00,
2013-02-02 19:57:00,59.8,29.9,30.08,NNE,13,0.0,1.0,32,0.00,,,0.00,0,LWC V2.00 B727,2013-02-03 02:57:00,
2013-02-02 20:02:00,59.8,29.9,30.08,NNE,13,1.0,1.0,32,0.00,,,0.00,0,LWC V2.00 B727,2013-02-03 03:02:00,
2013-02-02 20:07:00,59.3,30.2,30.08,NNE,13,0.0,0.0,33,0.00,,,0.00,0,LWC V2.00 B727,2013-02-03 03:07:00,
2013-02-02 20:12:00,58.7,30.4,30.08,NNE,13,0.0,1.0,34,0.00,,,0.00,0,LWC V2.00 B727,2013-02-03 03:12:00,
2013-02-02 20:17:00,58.3,30.8,30.08,NNE,13,0.0,1.0,35,0.00,,,0.00,0,LWC V2.00 B727,2013-02-03 03:17:00,
2013-02-02 20:22:00,58.2,30.0,30.08,NNE,13,0.0,0.0,34,0.00,,,0.00,0,LWC V2.00 B727,2013-02-03 03:22:00,
2013-02-02 20:27:00,59.3,30.2,30.08,NNE,13,0.0,1.0,33,0.00,,,0.00,0,LWC V2.00 B727,2013-02-03 03:27:00,
2013-02-02 20:32:00,59.3,30.2,30.08,NNE,13,1.0,2.0,33,0.00,,,0.00,0,LWC V2.00 B727,2013-02-03 03:32:00,
2013-02-02 20:37:00,58.7,30.4,30.08,NNE,13,0.0,0.0,34,0.00,,,0.00,0,LWC V2.00 B727,2013-02-03 03:37:00,
2013-02-02 20:42:00,58.1,29.9,30.08,NNE,13,0.0,1.0,34,0.00,,,0.00,0,LWC V2.00 B727,2013-02-03 03:42:00,
2013-02-02 20:47:00,56.7,30.7,30.08,NNE,13,0.0,0.0,37,0.00,,,0.00,0,LWC V2.00 B727,2013-02-03 03:47:00,
2013-02-02 20:52:00,56.2,30.3,30.08,NNE,13,0.0,1.0,37,0.00,,,0.00,0,LWC V2.00 B727,2013-02-03 03:52:00,
2013-02-02 20:57:00,57.5,30.1,30.08,NNE,13,0.0,2.0,35,0.00,,,0.00,0,LWC V2.00 B727,2013-02-03 03:57:00,
2013-02-02 21:02:00,57.7,29.5,30.08,NNE,13,0.0,2.0,34,0.00,,,0.00,0,LWC V2.00 B727,2013-02-03 04:02:00,
2013-02-02 21:07:00,57.5,30.1,30.08,NNE,13,0.0,0.0,35,0.00,,,0.00,0,LWC V2.00 B727,2013-02-03 04:07:00,
2013-02-02 21:12:00,56.4,30.5,30.08,NNE,13,0.0,0.0,37,0.00,,,0.00,0,LWC V2.00 B727,2013-02-03 04:12:00,
2013-02-02 21:17:00,55.8,30.6,30.08,NNE,13,0.0,0.0,38,0.00,,,0.00,0,LWC V2.00 B727,2013-02-03 04:17:00,
2013-02-02 21:22:00,54.6,32.0,30.08,NNE,13,0.0,0.0,42,0.00,,,0.00,0,LWC V2.00 B727,2013-02-03 04:22:00,
2013-02-02 21:27:00,53.8,31.3,30.09,NNE,13,0.0,0.0,42,0.00,,,0.00,0,LWC V2.00 B727,2013-02-03 04:27:00,
2013-02-02 21:32:00,53.4,31.5,30.08,NNE,13,0.0,0.0,43,0.00,,,0.00,0,LWC V2.00 B727,2013-02-03 04:32:00,
2013-02-02 21:37:00,53.0,31.7,30.09,NNE,13,0.0,0.0,44,0.00,,,0.00,0,LWC V2.00 B727,2013-02-03 04:37:00,
2013-02-02 21:42:00,52.9,31.6,30.09,NNE,13,0.0,0.0,44,0.00,,,0.00,0,LWC V2.00 B727,2013-02-03 04:42:00,
2013-02-02 21:47:00,52.7,31.4,30.09,NNE,13,0.0,0.0,44,0.00,,,0.00,0,LWC V2.00 B727,2013-02-03 04:47:00,
2013-02-02 21:52:00,52.6,31.9,30.09,NNE,13,0.0,1.0,45,0.00,,,0.00,0,LWC V2.00 B727,2013-02-03 04:52:00,
2013-02-02 21:57:00,52.3,32.7,30.09,NNE,13,0.0,0.0,47,0.00,,,0.00,0,LWC V2.00 B727,2013-02-03 04:57:00,
2013-02-02 22:00:00,52.6,31.3,30.09,NNE,13,0.0,0.0,44,0.00,,,0.00,0,LWC V2.00 B727,2013-02-03 05:00:00,
2013-02-02 22:05:00,53.1,31.8,30.09,NNE,13,0.0,0.0,44,0.00,,,0.00,0,LWC V2.00 B727,2013-02-03 05:05:00,
2013-02-02 22:10:00,53.8,31.3,30.09,NNE,13,0.0,0.0,42,0.00,,,0.00,0,LWC V2.00 B727,2013-02-03 05:10:00,
2013-02-02 22:15:00,54.6,30.8,30.09,NNE,13,0.0,0.0,40,0.00,,,0.00,0,LWC V2.00 B727,2013-02-03 05:15:00,
2013-02-02 22:20:00,54.8,30.9,30.09,NNE,13,0.0,2.0,40,0.00,,,0.00,0,LWC V2.00 B727,2013-02-03 05:20:00,
2013-02-02 22:25:00,54.6,31.4,30.09,NNE,13,1.0,2.0,41,0.00,,,0.00,0,LWC V2.00 B727,2013-02-03 05:25:00,
2013-02-02 22:30:00,54.6,31.4,30.09,NNE,13,1.0,2.0,41,0.00,,,0.00,0,LWC V2.00 B727,2013-02-03 05:30:00,
2013-02-02 22:35:00,55.0,31.1,30.09,NNE,13,1.0,1.0,40,0.00,,,0.00,0,LWC V2.00 B727,2013-02-03 05:35:00,
2013-02-02 22:40:00,55.5,31.0,30.08,NNE,13,0.0,0.0,39,0.00,,,0.00,0,LWC V2.00 B727,2013-02-03 05:40:00,
2013-02-02 22:45:00,55.8,31.2,30.08,NNE,13,0.0,0.0,39,0.00,,,0.00,0,LWC V2.00 B727,2013-02-03 05:45:00,
2013-02-02 22:50:00,56.0,30.8,30.08,NNE,13,0.0,1.0,38,0.00,,,0.00,0,LWC V2.00 B727,2013-02-03 05:50:00,
2013-02-02 22:55:00,55.9,30.7,30.08,NNE,13,0.0,0.0,38,0.00,,,0.00,0,LWC V2.00 B727,2013-02-03 05:55:00,
2013-02-02 23:00:00,55.3,31.4,30.08,NNE,13,0.0,0.0,40,0.00,,,0.00,0,LWC V2.00 B727,2013-02-03 06:00:00,
2013-02-02 23:05:00,55.1,31.2,30.08,NNE,13,0.0,0.0,40,0.00,,,0.00,0,LWC V2.00 B727,2013-02-03 06:05:00,
2013-02-02 23:10:00,55.4,31.5,30.08,NNE,13,0.0,0.0,40,0.00,,,0.00,0,LWC V2.00 B727,2013-02-03 06:10:00,
2013-02-02 23:15:00,56.7,30.7,30.08,NNE,13,0.0,0.0,37,0.00,,,0.00,0,LWC V2.00 B727,2013-02-03 06:15:00,
2013-02-02 23:20:00,57.5,30.8,30.08,NNE,13,0.0,0.0,36,0.00,,,0.00,0,LWC V2.00 B727,2013-02-03 06:20:00,
2013-02-02 23:25:00,57.3,30.6,30.08,NNE,13,0.0,0.0,36,0.00,,,0.00,0,LWC V2.00 B727,2013-02-03 06:25:00,
2013-02-02 23:30:00,56.2,31.6,30.08,NNE,13,0.0,2.0,39,0.00,,,0.00,0,LWC V2.00 B727,2013-02-03 06:30:00,
2013-02-02 23:35:00,54.4,32.4,30.08,NNE,13,0.0,0.0,43,0.00,,,0.00,0,LWC V2.00 B727,2013-02-03 06:35:00,
2013-02-02 23:40:00,53.5,31.6,30.08,NNE,13,0.0,0.0,43,0.00,,,0.00,0,LWC V2.00 B727,2013-02-03 06:40:00,
2013-02-02 23:45:00,53.9,30.7,30.08,NNE,13,0.0,0.0,41,0.00,,,0.00,0,LWC V2.00 B727,2013-02-03 06:45:00,
2013-02-02 23:50:00,53.5,32.1,30.09,NNE,13,0.0,0.0,44,0.00,,,0.00,0,LWC V2.00 B727,2013-02-03 06:50:00,
2013-02-02 23:55:00,52.8,32.1,30.09,NNE,13,0.0,0.0,45,0.00,,,0.00,0,LWC V2.00 B727,2013-02-03 06:55:00,